ASTRA 1G
1 25071U 97076A   02346.00000000  .00000129  00000-0  10000-3 0  3843
2 25071   0.0122 319.8851 0002995  65.1991  74.6397  1.00273184 18453
INMARSAT 3-F5
1 25153U 98006B   02349.94568867 +.00000163 +00000-0 +10000-3 0 08195
2 25153 000.4524 357.0761 0004311 277.4738 175.2816 01.00271791017858
HOT BIRD 4
1 25237U 98013A   02345.84534997  .00000000  00000-0  10000-3 0  3216
2 25237   0.0520  56.1840 0017547 230.5888 110.7719  1.00271777 17859
NOAA 15
1 25338U 98030A   02351.01900209  .00000341  00000-0  16649-3 0  9372
2 25338  98.5536   9.8862 0010829 138.1142 222.0867 14.24208520238752
RESURS O1-N4
1 25394U 98043A   02350.97018167 +.00000495 +00000-0 +23526-3 0 04024
2 25394 098.6402 065.0427 0000918 329.5908 030.5216 14.23842383230484
TMSAT
1 25396U 98043C   02350.92419118 -.00000043 +00000-0 +00000-0 0 08047
2 25396 098.6365 064.2475 0001443 340.3237 019.7896 14.23482778230478
TECHSAT 1B
1 25397U 98043D   02350.92138935 +.00000152 +00000-0 +86699-4 0 00935
2 25397 098.6321 063.2072 0001429 010.2148 349.9058 14.22940256230445
ASTRA 2A
1 25462U 98050A   02346.59440744  .00000000  00000-0  10000-3 0  5230
2 25462   0.0231 312.8415 0003209 276.8526  93.6615  1.00271842 15765
EUTELSAT W2
1 25491U 98056A   02349.80619772  .00000126  00000-0  00000+0 0  5496
2 25491   0.0387  46.0459 0003240 212.6378 131.8287  1.00274232 15408
HOT BIRD 5
1 25495U 98057A   02349.85353589  .00000178  00000-0  00000+0 0  4796
2 25495   0.0279 248.8561 0003958   1.3087 174.5463  1.00270539 15376
SEDSAT 1
1 25509U 98061B   02350.65734116 +.00001465 +00000-0 +28525-3 0 07357
2 25509 031.4267 154.0536 0357768 104.7846 259.2691 14.27274073216174
PAN SAT
1 25520U 98064B   02350.93513870 +.00004511 +00000-0 +23517-3 0 06255
2 25520 028.4599 287.5826 0005896 021.6896 338.3979 15.13488565227932
ISS (ZARYA)
1 25544U 98067A   02351.43074074  .00028090  00000-0  37759-3 0  4831
2 25544  51.6361 213.0930 0003348 282.7334  79.4672 15.57663409232557
ORSTED
1 25635U 99008B   02351.08902374  .00000927  00000-0  24258-3 0  7834
2 25635  96.4468 347.5461 0145220 169.9947 190.4195 14.44722912200770
SUNSAT
1 25636U 99008C   02350.98840949 +.00000474 +00000-0 +13192-3 0 07058
2 25636 096.4488 346.2542 0148790 176.1488 184.0895 14.42893625200644
UOSAT 12
1 25693U 99021A   02351.07938982  .00000820  00000-0  13749-3 0  5288
2 25693  64.5580 205.0972 0014028 314.4329  45.5631 14.76301016196886
FENGYUN 1C
1 25730U 99025A   02351.22017581  .00000018  00000-0  33223-4 0  7195
2 25730  98.6391  12.9908 0014309 179.6398 180.4786 14.11725109185698
ASTRA 1H
1 25785U 99033A   02346.00000000  .00000129  00000-0  10000-3 0  3659
2 25785   0.0122 319.8851 0002995  65.1991  74.6127  1.00273184 12810
TERRA
1 25994U 99068A   02351.27447157  .00001162  00000-0  26790-3 0  5116
2 25994  98.2084  63.4432 0000740  79.5468 280.5813 14.57122808159453
JAWSAT
1 26061U 00004A   02351.53123567  .00000992  00000-0  34673-3 0  7187
2 26061 100.2159  31.8757 0035687  97.7843 262.7398 14.37731573151479
OPAL
1 26063U 00004C   02350.63895109  .00000274  00000-0  11490-3 0  6754
2 26063 100.2209  28.5906 0037304 106.1290 254.3995 14.35446570151215
ASUSAT
1 26065U 00004E   02351.22430564  .00000339  00000-0  13732-3 0  6867
2 26065 100.2220  29.4187 0037935 106.1564 254.3796 14.35471653151292
GOES 11
1 26352U 00022A   02350.47719730 -.00000024  00000-0  10000-3 0  9340
2 26352   0.0252 265.8664 0004797 353.4187 246.2830  1.00259082  9599
EUTELSAT W4
1 26369U 00028A   02348.86661132  .00000175  00000-0  00000+0 0  3284
2 26369   0.0498  19.0353 0004052 218.3156 194.1123  1.00275292  9397
FENGYUN 2B
1 26382U 00032A   02350.74859352 -.00000305 +00000-0 +00000-0 0 07514
2 26382 000.7261 286.3575 0000477 211.9375 320.7438 01.00280367009071
EUTELSAT W1
1 26487U 00052A   02349.94487872  .00000091  00000-0  10000-3 0  3304
2 26487   0.0079 235.3512 0003957   7.9342 191.2561  1.00273615  8373
ASTRA 2B
1 26494U 00054A   02346.00000000  .00000159  00000-0  00000+0 0  2480
2 26494   0.0178 354.5658 0005000 302.8402 171.3283  1.00276704  8238
NOAA 16
1 26536U 00055A   02350.80186738  .00000214  00000-0  14140-3 0  1265
2 26536  98.8934 294.5864 0011189 122.8830 237.3376 14.11859423115159
SAUDISAT 1A
1 26545U 00057A   02350.98086681  .00002177  00000-0  30721-3 0  3852
2 26545  64.5582 227.3297 0055977 248.4791 111.0330 14.78762066119810
UNISAT
1 26547U 00057C   02350.65949846 +.00003450 +00000-0 +46524-3 0 04044
2 26547 064.5572 230.7814 0062924 251.3201 108.1079 14.79389097119731
TIUNGSAT 1
1 26548U 00057D   02350.62782902 +.00002730 +00000-0 +36275-3 0 03894
2 26548 064.5574 222.0065 0049420 246.8395 112.7514 14.80987804119901
SAUDISAT 1B
1 26549U 00057E   02351.10675903  .00001943  00000-0  28210-3 0  6417
2 26549  64.5518 230.7317 0060188 249.0666 110.3992 14.77708538119765
AMSAT OSCAR 40
1 26609U 00072B   02349.18858811 -.00000041 +00000-0 +10000-3 0 02937
2 26609 007.8036 076.3494 7929460 122.4014 336.9245 01.25597163009766
GOES 12
1 26871U 01031A   02351.38635787 -.00000066  00000-0  10000-3 0  7284
2 26871   0.3952  98.5812 0001859  75.2225 306.6057  1.00262420  5205
STARSHINE 3
1 26929U 01043A   02351.13139917  .00260836  00000-0  93552-3 0  5876
2 26929  67.0265 175.9565 0001738 219.2229 140.8525 15.87888097 68729
PCSAT
1 26931U 01043C   02351.53855828  .00000460  00000-0  21372-3 0  3547
2 26931  67.0484  57.8731 0005582 255.4423 104.6054 14.29069840 63347
SAPPHIRE
1 26932U 01043D   02350.96490443 +.00000311 +00000-0 +15472-3 0 03653
2 26932 067.0533 059.0697 0007104 243.7143 116.3229 14.29261468063286
ENVISAT
1 27386U 02009A   02351.39135548  .00000376  00000-0  15549-3 0  7571
2 27386  98.5412  55.8430 0000950  90.5483 269.5810 14.32259414 41703
IDEFIX/ARIANE 42P
1 27422U 02021B   02350.90856668 +.00000442 +00000-0 +19647-3 0 01880
2 27422 098.7041 065.3757 0012389 339.8831 020.1857 14.27924244032376
NOAA 17
1 27453U 02032A   02351.01415578  .00000460  00000-0  22288-3 0  2358
2 27453  98.7667  57.5285 0011677 177.0680 183.0569 14.23245117 24928
HOT BIRD 6
1 27499U 02038A   02345.30152330  .00000000  00000-0  10000-3 0   620
2 27499   0.1280 195.4916 0008939 138.7850 227.1270  1.00273108  1138
